FW0135 Weather Reports


time (UTC)temp
C
wind
direction
speed
KPH
gust
KPH
rain 1hr
cm
rain 24hr
cm
rain mn
cm
humidity
%
barometer
mb
20260504192944 21 300 1.6 6.4 0.00 0.00 0.00 37 991.1
20260504192439 21 306 3.2 8.0 0.00 0.00 0.00 38 991.1
20260504191933 21 308 3.2 8.0 0.00 0.00 0.00 37 991.2
20260504191426 21 11 4.8 16.1 0.00 0.00 0.00 38 991.2
20260504190921 21 269 4.8 16.1 0.00 0.00 0.00 36 991.3
20260504190415 21 290 3.2 8.0 0.00 0.00 0.00 38 991.2
20260504185908 21 309 3.2 9.7 0.00 0.00 0.00 39 991.2
20260504185403 21 303 4.8 9.7 0.00 0.00 0.00 38 991.2
20260504184857 21 298 3.2 8.0 0.00 0.03 0.00 39 991.3
20260504184350 20 298 3.2 8.0 0.00 0.03 0.00 40 991.3
20260504183844 20 241 3.2 8.0 0.00 0.03 0.00 39 991.2
20260504183339 20 330 3.2 8.0 0.00 0.03 0.00 42 991.3
20260504182833 19 292 3.2 4.8 0.00 0.03 0.00 43 991.5
20260504182326 19 292 3.2 4.8 0.00 0.03 0.00 43 991.6
20260504181821 19 315 3.2 6.4 0.00 0.03 0.00 42 991.6
20260504181315 19 315 3.2 6.4 0.00 0.03 0.00 41 991.6
20260504180808 18 22 3.2 9.7 0.00 0.03 0.00 43 991.6
20260504180303 19 311 4.8 9.7 0.00 0.03 0.00 41 991.7
20260504175757 19 309 4.8 8.0 0.00 0.03 0.00 39 991.7
20260504175250 19 311 3.2 8.0 0.00 0.03 0.00 41 991.8
20260504174747 20 309 3.2 8.0 0.00 0.03 0.00 39 991.7
20260504174248 20 294 3.2 8.0 0.00 0.03 0.00 41 991.7
20260504173247 19 274 3.2 9.7 0.00 0.03 0.00 39 991.8
20260504172745 19 300 3.2 8.0 0.00 0.03 0.00 41 991.8
20260504172246 20 302 3.2 8.0 0.00 0.03 0.00 40 991.8
20260504171746 20 305 3.2 8.0 0.00 0.03 0.00 40 991.8
20260504171248 20 314 3.2 8.0 0.00 0.03 0.00 41 991.8
20260504170747 20 288 3.2 8.0 0.00 0.03 0.00 38 991.9
20260504170247 19 300 3.2 11.3 0.00 0.03 0.00 41 991.9
20260504160245 18 298 3.2 8.0 0.00 0.03 0.00 41 992.3
20260504150741 16 254 1.6 4.8 0.00 0.03 0.00 50 992.9
20260504150235 16 270 1.6 4.8 0.00 0.03 0.00 48 992.9
20260504141129 15 257 3.2 6.4 0.00 0.03 0.00 52 993.4
20260504140624 15 321 3.2 6.4 0.00 0.03 0.00 51 993.5
20260504130512 12 303 1.6 8.0 0.00 0.03 0.00 61 994.2
20260504100251 5 25 0.0 0.0 0.00 0.03 0.00 87 994.8
20260504081741 3 25 0.0 0.0 0.00 0.03 0.00 87 995.1
20260504081236 3 25 0.0 0.0 0.00 0.05 0.00 87 995.0
20260504080730 3 25 0.0 0.0 0.00 0.05 0.00 88 994.6
20260504080224 3 25 0.0 0.0 0.00 0.05 0.00 87 994.9
20260504070112 3 25 0.0 0.0 0.00 0.05 0.00 88 994.9
20260504045342 0 25 0.0 0.0 0.00 0.05 0.00 88 995.0
20260504044835 0 25 0.0 0.0 0.00 0.05 0.00 88 995.1
20260504044330 0 25 0.0 0.0 0.00 0.05 0.00 88 995.1
20260504043824 0 25 0.0 0.0 0.00 0.05 0.00 87 995.1
20260504043318 0 25 0.0 0.0 0.00 0.05 0.00 87 995.2
20260504042812 0 25 0.0 0.0 0.00 0.05 0.00 87 995.1
20260504042306 0 25 0.0 0.0 0.00 0.05 0.00 87 995.0
20260504041800 0 25 0.0 0.0 0.00 0.05 0.00 87 995.1
20260504041253 0 25 0.0 0.0 0.00 0.05 0.00 87 995.0
20260504040747 0 25 0.0 0.0 0.00 0.05 0.00 87 995.0
20260504040241 0 25 0.0 0.0 0.00 0.05 0.00 87 994.9
20260504035737 1 25 0.0 0.0 0.00 0.05 0.05 87 994.9
20260504034725 1 25 0.0 0.0 0.00 0.05 0.05 86 995.0
20260504034218 1 25 0.0 0.0 0.00 0.05 0.05 86 995.0
20260504032701 1 25 0.0 0.0 0.00 0.05 0.05 86 994.9
20260504032154 1 25 0.0 0.0 0.00 0.05 0.05 86 994.8
20260504031648 1 25 0.0 0.0 0.00 0.05 0.05 85 994.9
20260504031142 1 25 0.0 0.0 0.00 0.05 0.05 86 994.8
20260504030636 1 25 0.0 0.0 0.00 0.05 0.05 86 994.8
20260504030131 1 25 0.0 0.0 0.00 0.05 0.05 85 994.8
20260504025119 1 25 0.0 0.0 0.00 0.05 0.05 85 994.8
20260504024612 1 25 0.0 0.0 0.00 0.05 0.05 85 994.8
20260504024107 1 25 0.0 0.0 0.00 0.05 0.05 84 994.8
20260504023601 2 25 0.0 0.0 0.00 0.05 0.05 84 994.8
20260504023055 2 25 0.0 0.0 0.00 0.05 0.05 84 994.9
20260504022549 2 25 0.0 0.0 0.00 0.05 0.05 84 994.8
20260504022042 2 25 0.0 0.0 0.00 0.05 0.05 84 994.9
20260504021536 2 25 0.0 0.0 0.00 0.08 0.05 84 994.9
20260504020525 2 25 0.0 0.0 0.00 0.13 0.05 83 994.8
20260504020019 2 25 0.0 0.0 0.00 0.13 0.05 83 994.8
20260504015513 2 25 0.0 0.0 0.00 0.13 0.05 83 994.7
20260504015013 3 25 0.0 0.0 0.00 0.13 0.05 82 994.7
20260504014011 3 25 0.0 0.0 0.00 0.13 0.05 82 994.6
20260504013511 3 25 0.0 0.0 0.00 0.13 0.05 82 994.6
20260504013012 3 25 0.0 0.0 0.00 0.13 0.05 82 994.6
20260504012508 3 25 0.0 0.0 0.00 0.13 0.05 81 994.5
20260504011508 3 25 0.0 0.0 0.00 0.13 0.05 81 994.4
20260504010508 3 25 0.0 0.0 0.00 0.13 0.05 80 994.3
20260504010008 4 25 0.0 0.0 0.00 0.13 0.05 81 994.2
20260504005506 4 25 0.0 0.0 0.00 0.13 0.05 80 994.1
20260504005009 4 25 0.0 0.0 0.00 0.13 0.05 79 994.1
20260504004008 5 25 0.0 0.0 0.00 0.13 0.05 77 994.0
20260504003505 5 25 0.0 0.0 0.00 0.13 0.05 76 994.0
20260504003004 5 25 0.0 0.0 0.00 0.13 0.05 78 994.0
20260504002504 5 25 0.0 0.0 0.00 0.13 0.05 75 994.0
20260504002002 6 25 0.0 0.0 0.00 0.13 0.05 76 993.9
20260504001503 6 25 0.0 0.0 0.00 0.13 0.05 72 993.8
20260504000504 6 25 0.0 0.0 0.00 0.13 0.05 73 993.7
20260504000003 6 25 0.0 0.0 0.00 0.13 0.05 72 993.6
20260503235504 7 25 0.0 0.0 0.00 0.13 0.05 70 993.6
20260503235003 7 25 0.0 0.0 0.00 0.13 0.05 66 993.6
20260503234504 7 25 0.0 0.0 0.00 0.13 0.05 67 993.5
20260503234002 7 25 0.0 0.0 0.00 0.13 0.05 66 993.5
20260503233504 7 25 0.0 0.0 0.00 0.13 0.05 65 993.5
20260503233003 8 25 0.0 0.0 0.00 0.13 0.05 65 993.4
20260503232002 8 25 0.0 0.0 0.00 0.15 0.05 63 993.5
20260503231502 8 25 0.0 4.8 0.00 0.15 0.05 62 993.4
20260503231003 8 25 0.0 4.8 0.00 0.20 0.05 58 993.3
20260503225951 9 86 0.0 3.2 0.00 0.23 0.05 57 993.3
20260503225445 9 84 0.0 3.2 0.00 0.23 0.05 57 993.2
20260503224939 9 84 1.6 3.2 0.00 0.23 0.05 54 993.2
20260503224434 9 84 1.6 4.8 0.00 0.25 0.05 58 993.2
20260503223421 10 132 1.6 6.4 0.00 0.25 0.05 52 993.1
20260503222915 10 346 1.6 6.4 0.00 0.25 0.05 53 993.2
20260503222408 10 327 1.6 6.4 0.00 0.25 0.05 52 993.0
20260503221902 10 314 3.2 6.4 0.00 0.25 0.05 53 992.9
20260503221357 10 267 1.6 6.4 0.00 0.25 0.05 51 993.0
20260503220851 9 28 1.6 6.4 0.00 0.25 0.05 53 992.9
20260503220345 9 336 3.2 6.4 0.00 0.25 0.05 56 992.9
20260503214827 9 344 3.2 8.0 0.00 0.30 0.05 52 992.7
20260503214320 10 309 3.2 8.0 0.00 0.33 0.05 50 992.8
20260503213814 10 320 3.2 6.4 0.00 0.33 0.05 50 992.7
20260503212802 10 102 3.2 8.0 0.00 0.36 0.05 49 992.7
20260503212256 10 335 3.2 9.7 0.00 0.36 0.05 50 992.6
20260503211751 10 330 4.8 9.7 0.00 0.38 0.05 48 992.5
20260503211244 10 204 3.2 9.7 0.00 0.38 0.05 48 992.4
20260503210738 10 284 3.2 9.7 0.00 0.43 0.05 51 992.4
20260503210233 10 5 3.2 9.7 0.00 0.46 0.05 48 992.3
20260503205220 10 13 3.2 9.7 0.00 0.51 0.05 48 992.3
20260503204714 10 38 3.2 9.7 0.00 0.53 0.05 51 992.2
20260503204209 10 338 3.2 6.4 0.00 0.53 0.05 53 992.2
20260503203703 10 332 3.2 8.0 0.00 0.53 0.05 52 992.3
20260503203156 10 298 3.2 8.0 0.00 0.53 0.05 49 992.0
20260503202651 10 307 3.2 6.4 0.00 0.53 0.05 50 992.0
20260503201639 10 297 3.2 8.0 0.00 0.53 0.05 49 991.9
20260503201133 10 342 3.2 11.3 0.00 0.53 0.05 52 991.9
20260503200120 10 302 4.8 11.3 0.00 0.56 0.05 49 992.0
20260503195614 10 318 4.8 11.3 0.00 0.58 0.05 46 991.9
20260503195108 10 306 3.2 12.9 0.03 0.58 0.05 50 992.0
20260503194603 10 340 4.8 12.9 0.03 0.61 0.05 49 991.9
20260503194056 10 215 3.2 9.7 0.03 0.64 0.05 49 992.0
20260503193550 10 312 1.6 9.7 0.03 0.66 0.05 51 991.9